Location: Bruderhein
(53.8035°N, 112.9265°W)
Time: 05:20:47
(UTC+00:00)

First-Move - Pass Details

Date: 02 May 2024
Orbit: 538 x 600 km, 97.7° (Epoch: 19 May)

Event Time Altitude Azimuth Distance (km) Brightness Sun altitude
Rises 10:43:03 0° 18° (NNE) 2,877 ? -9.2°
Reaches altitude 10° 10:45:19 10° 24° (NNE) 1,968 ? -8.9°
Maximum altitude 10:49:28 47° 99° (E) 807 ? -8.5°
Drops below altitude 10° 10:53:33 10° 174° (S) 1,939 ? -8.0°
Sets 10:55:46 0° 180° (S) 2,829 ? -7.8°
